| time (UTC) | temp F | wind direction | speed MPH | gust MPH | rain 1hr in | rain 24hr in | rain mn in | humidity % | barometer mb |
| 20260904121955 | 62 | 261 | 3.0 | 7.0 | 0.00 | 0.00 | 0.00 | 69 | 997.5 |
| 20260904121253 | 63 | 248 | 1.0 | 2.0 | 0.00 | 0.00 | 0.00 | 70 | 997.5 |
| 20260904120552 | 63 | 248 | 0.0 | 1.0 | 0.00 | 0.00 | 0.00 | 70 | 997.6 |
| 20260904115848 | 62 | 248 | 0.0 | 0.0 | 0.00 | 0.00 | 0.00 | 71 | 997.5 |
| 20260904115147 | 61 | 248 | 0.0 | 0.0 | 0.00 | 0.00 | 0.00 | 70 | 997.7 |
| 20260904114457 | 62 | 248 | 1.0 | 3.0 | 0.00 | 0.00 | 0.00 | 67 | 997.5 |
| 20260904113756 | 64 | 248 | 3.0 | 5.0 | 0.00 | 0.00 | 0.00 | 63 | 997.6 |
| 20260904113721 | 64 | 248 | 1.0 | 5.0 | 0.00 | 0.00 | 0.00 | 63 | 997.5 |
| 20260904113054 | 67 | 248 | 1.0 | 2.0 | 0.00 | 0.00 | 0.00 | 59 | 997.6 |
| 20260904112619 | 70 | 248 | 0.0 | 0.0 | 0.00 | 0.00 | 0.00 | 56 | 997.6 |
| 20260904112353 | 71 | 248 | 1.0 | 1.0 | 0.00 | 0.00 | 0.00 | 61 | 998.0 |
| 20260904111651 | 71 | 248 | 1.0 | 1.0 | 0.00 | 0.00 | 0.00 | 61 | 998.0 |
| 20260904111516 | 71 | 248 | 1.0 | 1.0 | 0.00 | 0.00 | 0.00 | 61 | 998.0 |
| 20260904110949 | 69 | 248 | 1.0 | 2.0 | 0.00 | 0.00 | 0.00 | 63 | 998.0 |
| 20260904110424 | 65 | 248 | 2.0 | 0.0 | 0.00 | 0.00 | 0.00 | 67 | 998.0 |
| 20260904110246 | 65 | 248 | 2.0 | 0.0 | 0.00 | 0.00 | 0.00 | 67 | 998.0 |
| 20260904105556 | 65 | 248 | 3.0 | 5.0 | 0.00 | 0.00 | 0.00 | 66 | 998.1 |
| 20260904105321 | 65 | 248 | 0.0 | 3.0 | 0.00 | 0.00 | 0.00 | 66 | 998.0 |
| 20260904104855 | 64 | 248 | 1.0 | 2.0 | 0.00 | 0.00 | 0.00 | 68 | 998.1 |
| 20260904104153 | 64 | 248 | 0.0 | 1.0 | 0.00 | 0.00 | 0.00 | 67 | 998.1 |
| 20260904103451 | 64 | 248 | 0.0 | 2.0 | 0.00 | 0.00 | 0.00 | 70 | 998.2 |
| 20260904103126 | 62 | 248 | 0.0 | 1.0 | 0.00 | 0.00 | 0.00 | 70 | 998.2 |
| 20260904102747 | 62 | 248 | 1.0 | 1.0 | 0.00 | 0.00 | 0.00 | 70 | 998.2 |
| 20260904102057 | 63 | 248 | 0.0 | 1.0 | 0.00 | 0.00 | 0.00 | 69 | 998.3 |
| 20260904102023 | 63 | 248 | 0.0 | 0.0 | 0.00 | 0.00 | 0.00 | 69 | 998.3 |
| 20260904101354 | 63 | 248 | 0.0 | 0.0 | 0.00 | 0.00 | 0.00 | 70 | 998.4 |
| 20260904100919 | 63 | 248 | 0.0 | 2.0 | 0.00 | 0.00 | 0.00 | 71 | 998.3 |
| 20260904100653 | 62 | 248 | 0.0 | 0.0 | 0.00 | 0.00 | 0.00 | 71 | 998.3 |
| 20260904100003 | 62 | 248 | 0.0 | 0.0 | 0.00 | 0.00 | 0.00 | 69 | 998.4 |
| 20260904095932 | 62 | 248 | 0.0 | 0.0 | 0.00 | 0.00 | 0.00 | 68 | 998.4 |
| 20260904095249 | 63 | 248 | 0.0 | 1.0 | 0.00 | 0.00 | 0.00 | 66 | 998.4 |
| 20260904094724 | 64 | 248 | 2.0 | 3.0 | 0.00 | 0.00 | 0.00 | 66 | 998.5 |
| 20260904094546 | 64 | 248 | 1.0 | 2.0 | 0.00 | 0.00 | 0.00 | 67 | 998.5 |
| 20260904093855 | 65 | 248 | 0.0 | 1.0 | 0.00 | 0.00 | 0.00 | 67 | 998.5 |
| 20260904093620 | 66 | 248 | 1.0 | 1.0 | 0.00 | 0.00 | 0.00 | 66 | 998.7 |
| 20260904093152 | 67 | 248 | 1.0 | 2.0 | 0.00 | 0.00 | 0.00 | 66 | 998.7 |
| 20260904092450 | 68 | 248 | 1.0 | 3.0 | 0.00 | 0.00 | 0.00 | 65 | 998.7 |
| 20260904091748 | 69 | 248 | 2.0 | 2.0 | 0.00 | 0.00 | 0.00 | 67 | 998.8 |
| 20260904091424 | 69 | 248 | 0.0 | 3.0 | 0.00 | 0.00 | 0.00 | 69 | 998.8 |
| 20260904091046 | 68 | 248 | 1.0 | 3.0 | 0.00 | 0.00 | 0.00 | 70 | 998.8 |
| 20260904090356 | 67 | 248 | 1.0 | 1.0 | 0.00 | 0.00 | 0.00 | 69 | 998.9 |
| 20260904090320 | 67 | 248 | 2.0 | 3.0 | 0.00 | 0.00 | 0.00 | 70 | 998.9 |
| 20260904085652 | 69 | 248 | 5.0 | 6.0 | 0.00 | 0.00 | 0.00 | 68 | 999.0 |
| 20260904085217 | 69 | 248 | 1.0 | 3.0 | 0.00 | 0.00 | 0.00 | 68 | 999.1 |
| 20260904084951 | 69 | 248 | 1.0 | 2.0 | 0.00 | 0.00 | 0.00 | 68 | 999.1 |
| 20260904084249 | 69 | 248 | 1.0 | 2.0 | 0.00 | 0.00 | 0.00 | 71 | 999.0 |
| 20260904084126 | 69 | 248 | 2.0 | 3.0 | 0.00 | 0.00 | 0.00 | 73 | 999.0 |
| 20260904083548 | 68 | 248 | 1.0 | 2.0 | 0.00 | 0.00 | 0.00 | 76 | 998.9 |
| 20260904083025 | 67 | 248 | 1.0 | 3.0 | 0.00 | 0.00 | 0.00 | 78 | 999.0 |
| 20260904082846 | 66 | 248 | 1.0 | 3.0 | 0.00 | 0.00 | 0.00 | 78 | 999.0 |
| 20260904082157 | 65 | 248 | 1.0 | 2.0 | 0.00 | 0.00 | 0.00 | 80 | 999.1 |
| 20260904081922 | 65 | 248 | 1.0 | 2.0 | 0.00 | 0.00 | 0.00 | 81 | 999.2 |
| 20260904081455 | 64 | 248 | 0.0 | 0.0 | 0.00 | 0.00 | 0.00 | 82 | 999.3 |
| 20260904080753 | 62 | 248 | 2.0 | 2.0 | 0.00 | 0.00 | 0.00 | 83 | 999.3 |
| 20260904080051 | 61 | 248 | 0.0 | 1.0 | 0.00 | 0.00 | 0.00 | 83 | 999.4 |
| 20260904075726 | 61 | 248 | 1.0 | 2.0 | 0.00 | 0.00 | 0.00 | 84 | 999.5 |
| 20260904075349 | 60 | 248 | 0.0 | 1.0 | 0.00 | 0.00 | 0.00 | 84 | 999.6 |
| 20260904074657 | 60 | 248 | 1.0 | 1.0 | 0.00 | 0.00 | 0.00 | 84 | 999.7 |
| 20260904074622 | 60 | 248 | 0.0 | 2.0 | 0.00 | 0.00 | 0.00 | 84 | 999.7 |
| 20260904073956 | 59 | 248 | 1.0 | 2.0 | 0.00 | 0.00 | 0.00 | 84 | 999.7 |
| 20260904073520 | 59 | 248 | 1.0 | 2.0 | 0.00 | 0.00 | 0.00 | 85 | 999.7 |
| 20260904073253 | 58 | 248 | 0.0 | 1.0 | 0.00 | 0.00 | 0.00 | 85 | 999.7 |
| 20260904072551 | 57 | 248 | 1.0 | 3.0 | 0.00 | 0.00 | 0.00 | 85 | 999.7 |
| 20260904072416 | 56 | 248 | 2.0 | 3.0 | 0.00 | 0.00 | 0.00 | 85 | 999.6 |
| 20260904071849 | 55 | 248 | 2.0 | 3.0 | 0.00 | 0.00 | 0.00 | 85 | 999.7 |
| 20260904071324 | 55 | 248 | 1.0 | 3.0 | 0.00 | 0.00 | 0.00 | 85 | 999.7 |
| 20260904071146 | 55 | 248 | 2.0 | 2.0 | 0.00 | 0.00 | 0.00 | 85 | 999.7 |
| 20260904070456 | 55 | 248 | 1.0 | 3.0 | 0.00 | 0.00 | 0.00 | 85 | 999.8 |
| 20260904070220 | 55 | 248 | 1.0 | 2.0 | 0.00 | 0.00 | 0.00 | 85 | 999.8 |
| 20260904065753 | 55 | 248 | 1.0 | 1.0 | 0.00 | 0.00 | 0.00 | 85 | 999.9 |
| 20260904065051 | 55 | 248 | 2.0 | 3.0 | 0.00 | 0.00 | 0.00 | 85 | 999.9 |
| 20260904064349 | 54 | 248 | 2.0 | 2.0 | 0.00 | 0.00 | 0.00 | 85 | 1000.0 |
| 20260904064026 | 53 | 248 | 2.0 | 3.0 | 0.00 | 0.00 | 0.00 | 85 | 1000.0 |
| 20260904063647 | 52 | 248 | 2.0 | 3.0 | 0.00 | 0.00 | 0.00 | 85 | 1000.0 |
| 20260904062956 | 51 | 248 | 2.0 | 2.0 | 0.00 | 0.00 | 0.00 | 86 | 1000.0 |
| 20260904062922 | 50 | 248 | 2.0 | 3.0 | 0.00 | 0.00 | 0.00 | 86 | 1000.0 |
| 20260904062254 | 48 | 248 | 2.0 | 3.0 | 0.00 | 0.00 | 0.00 | 86 | 1000.1 |
| 20260904061818 | 47 | 248 | 2.0 | 3.0 | 0.00 | 0.00 | 0.00 | 86 | 1000.1 |
| 20260904061551 | 46 | 248 | 1.0 | 2.0 | 0.00 | 0.00 | 0.00 | 86 | 1000.2 |
| 20260904060849 | 46 | 248 | 1.0 | 3.0 | 0.00 | 0.00 | 0.00 | 86 | 1000.2 |
| 20260904060727 | 46 | 248 | 0.0 | 2.0 | 0.00 | 0.00 | 0.00 | 86 | 1000.3 |
| 20260904060210 | 46 | 248 | 0.0 | 1.0 | 0.00 | 0.00 | 0.00 | 86 | 1000.2 |
| 20260904055622 | 45 | 248 | 0.0 | 0.0 | 0.00 | 0.00 | 0.00 | 86 | 1000.2 |
| 20260904055457 | 45 | 248 | 0.0 | 0.0 | 0.00 | 0.00 | 0.00 | 86 | 1000.3 |
| 20260904054755 | 45 | 248 | 0.0 | 0.0 | 0.00 | 0.00 | 0.00 | 86 | 1000.4 |
| 20260904054518 | 44 | 248 | 1.0 | 1.0 | 0.00 | 0.00 | 0.00 | 86 | 1000.5 |
| 20260904054051 | 44 | 248 | 1.0 | 2.0 | 0.00 | 0.00 | 0.00 | 86 | 1000.6 |
| 20260904053426 | 44 | 248 | 1.0 | 2.0 | 0.00 | 0.00 | 0.00 | 86 | 1000.6 |
| 20260904053349 | 44 | 248 | 1.0 | 2.0 | 0.00 | 0.00 | 0.00 | 86 | 1000.6 |
| 20260904052657 | 44 | 248 | 1.0 | 2.0 | 0.00 | 0.00 | 0.00 | 86 | 1000.6 |
| 20260904052322 | 44 | 248 | 2.0 | 2.0 | 0.00 | 0.00 | 0.00 | 86 | 1000.7 |
| 20260904051955 | 44 | 248 | 0.0 | 1.0 | 0.00 | 0.00 | 0.00 | 86 | 1000.7 |
| 20260904051253 | 44 | 248 | 2.0 | 2.0 | 0.00 | 0.00 | 0.00 | 86 | 1000.7 |
| 20260904051217 | 44 | 248 | 1.0 | 2.0 | 0.00 | 0.00 | 0.00 | 86 | 1000.7 |
| 20260904050551 | 44 | 248 | 0.0 | 0.0 | 0.00 | 0.00 | 0.00 | 86 | 1000.8 |
| 20260904050126 | 44 | 248 | 0.0 | 1.0 | 0.00 | 0.00 | 0.00 | 86 | 1000.8 |
| 20260904045848 | 44 | 248 | 1.0 | 2.0 | 0.00 | 0.00 | 0.00 | 85 | 1000.8 |
| 20260904045148 | 44 | 248 | 1.0 | 1.0 | 0.00 | 0.00 | 0.00 | 86 | 1000.9 |
| 20260904045025 | 44 | 248 | 0.0 | 1.0 | 0.00 | 0.00 | 0.00 | 86 | 1000.9 |
| 20260904044446 | 44 | 248 | 1.0 | 2.0 | 0.00 | 0.00 | 0.00 | 86 | 1000.9 |
| 20260904043757 | 43 | 248 | 2.0 | 3.0 | 0.00 | 0.00 | 0.00 | 86 | 1000.9 |
| 20260904043056 | 43 | 248 | 2.0 | 3.0 | 0.00 | 0.00 | 0.00 | 86 | 1001.1 |
| 20260904042354 | 42 | 248 | 0.0 | 1.0 | 0.00 | 0.00 | 0.00 | 86 | 1001.3 |
| 20260904041651 | 42 | 248 | 0.0 | 0.0 | 0.00 | 0.00 | 0.00 | 86 | 1001.4 |
| 20260904040949 | 42 | 248 | 0.0 | 0.0 | 0.00 | 0.00 | 0.00 | 86 | 1001.5 |
| 20260904040247 | 42 | 248 | 0.0 | 0.0 | 0.00 | 0.00 | 0.00 | 86 | 1001.5 |
| 20260904035556 | 42 | 248 | 0.0 | 2.0 | 0.00 | 0.00 | 0.00 | 86 | 1001.6 |
| 20260904034854 | 42 | 248 | 0.0 | 0.0 | 0.00 | 0.00 | 0.00 | 86 | 1001.6 |
| 20260904034152 | 42 | 248 | 0.0 | 0.0 | 0.00 | 0.00 | 0.00 | 86 | 1001.6 |
| 20260904033449 | 42 | 248 | 0.0 | 0.0 | 0.00 | 0.00 | 0.00 | 86 | 1001.7 |
| 20260904032747 | 42 | 248 | 1.0 | 2.0 | 0.00 | 0.00 | 0.00 | 86 | 1001.9 |
| 20260904032047 | 41 | 248 | 0.0 | 0.0 | 0.00 | 0.00 | 0.00 | 86 | 1002.0 |
| 20260904031357 | 41 | 248 | 1.0 | 1.0 | 0.00 | 0.00 | 0.00 | 86 | 1002.0 |
| 20260904030656 | 41 | 248 | 1.0 | 1.0 | 0.00 | 0.00 | 0.00 | 86 | 1002.1 |
| 20260904025954 | 41 | 248 | 0.0 | 0.0 | 0.00 | 0.00 | 0.00 | 86 | 1001.9 |
| 20260904025252 | 41 | 248 | 0.0 | 0.0 | 0.00 | 0.00 | 0.00 | 86 | 1002.0 |
| 20260904024549 | 41 | 248 | 0.0 | 0.0 | 0.00 | 0.00 | 0.00 | 86 | 1001.9 |
| 20260904023847 | 41 | 248 | 0.0 | 0.0 | 0.00 | 0.00 | 0.00 | 86 | 1002.1 |
| 20260904023156 | 41 | 248 | 0.0 | 0.0 | 0.00 | 0.00 | 0.00 | 86 | 1002.2 |
| 20260904022455 | 41 | 248 | 0.0 | 0.0 | 0.00 | 0.00 | 0.00 | 86 | 1002.3 |
| 20260904021754 | 41 | 248 | 0.0 | 0.0 | 0.00 | 0.00 | 0.00 | 86 | 1002.3 |
| 20260904021053 | 42 | 248 | 0.0 | 0.0 | 0.00 | 0.00 | 0.00 | 86 | 1002.3 |
| 20260904020351 | 42 | 248 | 0.0 | 0.0 | 0.00 | 0.00 | 0.00 | 86 | 1002.4 |
| 20260904015649 | 42 | 248 | 0.0 | 0.0 | 0.00 | 0.00 | 0.00 | 86 | 1002.4 |
| 20260904014947 | 43 | 248 | 1.0 | 2.0 | 0.00 | 0.00 | 0.00 | 86 | 1002.4 |
| 20260904014257 | 43 | 248 | 1.0 | 2.0 | 0.00 | 0.00 | 0.00 | 86 | 1002.4 |
| 20260904013554 | 42 | 248 | 0.0 | 0.0 | 0.00 | 0.00 | 0.00 | 86 | 1002.3 |
| 20260904012853 | 43 | 248 | 0.0 | 0.0 | 0.00 | 0.00 | 0.00 | 86 | 1002.5 |
| 20260904012152 | 43 | 248 | 0.0 | 0.0 | 0.00 | 0.00 | 0.00 | 86 | 1002.5 |
| 20260904011451 | 42 | 248 | 0.0 | 0.0 | 0.00 | 0.00 | 0.00 | 86 | 1002.6 |
| 20260904010749 | 42 | 248 | 0.0 | 0.0 | 0.00 | 0.00 | 0.00 | 86 | 1002.7 |
| 20260904010049 | 42 | 248 | 0.0 | 0.0 | 0.00 | 0.00 | 0.00 | 86 | 1002.7 |
| 20260904005357 | 43 | 248 | 0.0 | 0.0 | 0.00 | 0.00 | 0.00 | 86 | 1002.8 |
| 20260904004655 | 43 | 248 | 0.0 | 0.0 | 0.00 | 0.00 | 0.00 | 85 | 1002.9 |
| 20260904003952 | 43 | 248 | 0.0 | 0.0 | 0.00 | 0.00 | 0.00 | 85 | 1002.9 |
| 20260904003250 | 43 | 248 | 0.0 | 0.0 | 0.00 | 0.00 | 0.00 | 85 | 1002.9 |
| 20260904002549 | 43 | 248 | 0.0 | 0.0 | 0.00 | 0.00 | 0.00 | 85 | 1003.0 |
| 20260904001846 | 43 | 248 | 0.0 | 0.0 | 0.00 | 0.00 | 0.00 | 85 | 1003.1 |
| 20260904001157 | 43 | 248 | 0.0 | 0.0 | 0.00 | 0.00 | 0.00 | 85 | 1003.2 |
| 20260904000456 | 43 | 248 | 0.0 | 0.0 | 0.00 | 0.00 | 0.00 | 85 | 1003.1 |
| 20260903235754 | 43 | 248 | 0.0 | 0.0 | 0.00 | 0.00 | 0.00 | 85 | 1003.2 |
| 20260903235053 | 44 | 248 | 0.0 | 0.0 | 0.00 | 0.00 | 0.00 | 85 | 1003.3 |
| 20260903234351 | 44 | 248 | 0.0 | 0.0 | 0.00 | 0.00 | 0.00 | 85 | 1003.3 |
| 20260903233649 | 44 | 248 | 1.0 | 1.0 | 0.00 | 0.00 | 0.00 | 85 | 1003.3 |
| 20260903232946 | 44 | 248 | 0.0 | 1.0 | 0.00 | 0.00 | 0.00 | 85 | 1003.2 |
| 20260903232257 | 44 | 248 | 1.0 | 2.0 | 0.00 | 0.00 | 0.00 | 85 | 1003.3 |
| 20260903231555 | 44 | 248 | 1.0 | 2.0 | 0.00 | 0.00 | 0.00 | 85 | 1003.5 |
| 20260903230904 | 44 | 248 | 1.0 | 2.0 | 0.00 | 0.00 | 0.00 | 85 | 1003.4 |
| 20260903230150 | 44 | 248 | 0.0 | 1.0 | 0.00 | 0.00 | 0.00 | 85 | 1003.5 |
| 20260903225450 | 45 | 248 | 1.0 | 2.0 | 0.00 | 0.00 | 0.00 | 85 | 1003.5 |
| 20260903224748 | 44 | 248 | 0.0 | 0.0 | 0.00 | 0.00 | 0.00 | 85 | 1003.5 |
| 20260903224046 | 45 | 248 | 0.0 | 1.0 | 0.00 | 0.00 | 0.00 | 85 | 1003.6 |
| 20260903223346 | 45 | 248 | 1.0 | 1.0 | 0.00 | 0.00 | 0.00 | 85 | 1003.6 |
| 20260903222655 | 45 | 248 | 0.0 | 1.0 | 0.00 | 0.00 | 0.00 | 85 | 1003.7 |
| 20260903221953 | 45 | 248 | 1.0 | 1.0 | 0.00 | 0.00 | 0.00 | 85 | 1003.7 |
| 20260903221252 | 45 | 248 | 0.0 | 0.0 | 0.00 | 0.00 | 0.00 | 85 | 1003.8 |
| 20260903220550 | 45 | 248 | 0.0 | 0.0 | 0.00 | 0.00 | 0.00 | 85 | 1003.9 |
| 20260903215847 | 45 | 248 | 0.0 | 0.0 | 0.00 | 0.00 | 0.00 | 85 | 1003.9 |
| 20260903215156 | 45 | 248 | 0.0 | 0.0 | 0.00 | 0.00 | 0.00 | 85 | 1004.0 |
| 20260903214455 | 45 | 248 | 0.0 | 0.0 | 0.00 | 0.00 | 0.00 | 85 | 1004.0 |
| 20260903213753 | 45 | 248 | 0.0 | 0.0 | 0.00 | 0.00 | 0.00 | 85 | 1004.1 |
| 20260903213052 | 45 | 248 | 0.0 | 0.0 | 0.00 | 0.00 | 0.00 | 85 | 1004.1 |
| 20260903212350 | 46 | 248 | 0.0 | 0.0 | 0.00 | 0.00 | 0.00 | 85 | 1004.1 |
| 20260903211648 | 46 | 248 | 0.0 | 0.0 | 0.00 | 0.00 | 0.00 | 85 | 1004.1 |
| 20260903210948 | 46 | 248 | 0.0 | 0.0 | 0.00 | 0.00 | 0.00 | 85 | 1004.2 |
| 20260903210246 | 46 | 248 | 0.0 | 0.0 | 0.00 | 0.00 | 0.00 | 85 | 1004.2 |
| 20260903205556 | 47 | 248 | 0.0 | 0.0 | 0.00 | 0.00 | 0.00 | 85 | 1004.2 |
| 20260903204853 | 47 | 248 | 0.0 | 0.0 | 0.00 | 0.00 | 0.00 | 85 | 1004.2 |
| 20260903204150 | 47 | 248 | 1.0 | 0.0 | 0.00 | 0.00 | 0.00 | 85 | 1004.2 |
| 20260903203448 | 47 | 248 | 0.0 | 0.0 | 0.00 | 0.00 | 0.00 | 85 | 1004.2 |
| 20260903202757 | 47 | 248 | 0.0 | 0.0 | 0.00 | 0.00 | 0.00 | 85 | 1004.1 |
| 20260903202055 | 48 | 248 | 0.0 | 1.0 | 0.00 | 0.00 | 0.00 | 85 | 1004.1 |
| 20260903201353 | 48 | 248 | 0.0 | 1.0 | 0.00 | 0.00 | 0.00 | 85 | 1004.1 |
| 20260903200652 | 48 | 248 | 0.0 | 1.0 | 0.00 | 0.00 | 0.00 | 85 | 1004.1 |
| 20260903195951 | 48 | 248 | 0.0 | 0.0 | 0.00 | 0.00 | 0.00 | 85 | 1004.1 |
| 20260903195250 | 49 | 248 | 0.0 | 1.0 | 0.00 | 0.00 | 0.00 | 85 | 1004.1 |
| 20260903194548 | 49 | 248 | 0.0 | 1.0 | 0.00 | 0.00 | 0.00 | 85 | 1004.1 |
| 20260903193846 | 49 | 248 | 0.0 | 1.0 | 0.00 | 0.00 | 0.00 | 85 | 1004.1 |
| 20260903193157 | 49 | 248 | 1.0 | 1.0 | 0.00 | 0.00 | 0.00 | 85 | 1004.1 |
| 20260903192456 | 49 | 248 | 1.0 | 2.0 | 0.00 | 0.00 | 0.00 | 85 | 1004.1 |
| 20260903191752 | 49 | 248 | 1.0 | 1.0 | 0.00 | 0.00 | 0.00 | 85 | 1004.1 |
| 20260903191050 | 49 | 248 | 1.0 | 2.0 | 0.00 | 0.00 | 0.00 | 85 | 1004.1 |
| 20260903190349 | 50 | 248 | 1.0 | 1.0 | 0.00 | 0.00 | 0.00 | 85 | 1004.0 |
| 20260903185648 | 50 | 248 | 0.0 | 2.0 | 0.00 | 0.00 | 0.00 | 85 | 1004.1 |
| 20260903184947 | 50 | 248 | 0.0 | 0.0 | 0.00 | 0.00 | 0.00 | 85 | 1004.1 |
| 20260903184257 | 51 | 248 | 0.0 | 1.0 | 0.00 | 0.00 | 0.00 | 85 | 1004.1 |
| 20260903183556 | 51 | 248 | 0.0 | 1.0 | 0.00 | 0.00 | 0.00 | 85 | 1004.1 |
| 20260903182853 | 51 | 248 | 0.0 | 2.0 | 0.00 | 0.00 | 0.00 | 85 | 1004.1 |
| 20260903182151 | 51 | 248 | 0.0 | 1.0 | 0.00 | 0.00 | 0.00 | 85 | 1004.1 |
| 20260903181448 | 52 | 248 | 1.0 | 2.0 | 0.00 | 0.00 | 0.00 | 85 | 1004.1 |
| 20260903180747 | 52 | 248 | 1.0 | 5.0 | 0.00 | 0.00 | 0.00 | 85 | 1004.1 |
| 20260903180046 | 52 | 248 | 1.0 | 3.0 | 0.00 | 0.00 | 0.00 | 85 | 1004.0 |
| 20260903175356 | 52 | 248 | 1.0 | 2.0 | 0.00 | 0.00 | 0.00 | 85 | 1004.0 |
| 20260903174652 | 53 | 248 | 0.0 | 1.0 | 0.00 | 0.00 | 0.00 | 85 | 1004.0 |
| 20260903173951 | 53 | 248 | 0.0 | 2.0 | 0.00 | 0.00 | 0.00 | 85 | 1003.9 |
| 20260903173248 | 53 | 248 | 1.0 | 2.0 | 0.00 | 0.00 | 0.00 | 84 | 1003.9 |
| 20260903172547 | 53 | 248 | 1.0 | 3.0 | 0.00 | 0.00 | 0.00 | 84 | 1003.9 |
| 20260903171846 | 54 | 248 | 0.0 | 1.0 | 0.00 | 0.00 | 0.00 | 84 | 1003.9 |
| 20260903171155 | 54 | 248 | 0.0 | 1.0 | 0.00 | 0.00 | 0.00 | 84 | 1003.9 |
| 20260903170453 | 55 | 248 | 0.0 | 2.0 | 0.00 | 0.00 | 0.00 | 83 | 1003.7 |
| 20260903165749 | 55 | 252 | 2.0 | 3.0 | 0.00 | 0.00 | 0.00 | 83 | 1003.7 |
| 20260903165048 | 56 | 248 | 1.0 | 2.0 | 0.00 | 0.00 | 0.00 | 82 | 1003.6 |
| 20260903164346 | 56 | 248 | 1.0 | 2.0 | 0.00 | 0.00 | 0.00 | 82 | 1003.6 |
| 20260903163655 | 57 | 248 | 2.0 | 3.0 | 0.00 | 0.00 | 0.00 | 81 | 1003.6 |
| 20260903162952 | 57 | 270 | 2.0 | 2.0 | 0.00 | 0.00 | 0.00 | 81 | 1003.5 |
| 20260903162251 | 56 | 261 | 0.0 | 0.0 | 0.00 | 0.00 | 0.00 | 81 | 1003.7 |
| 20260903161602 | 56 | 249 | 1.0 | 3.0 | 0.00 | 0.00 | 0.00 | 80 | 1003.7 |
| 20260903160848 | 57 | 248 | 1.0 | 3.0 | 0.00 | 0.00 | 0.00 | 79 | 1003.5 |
| 20260903160157 | 57 | 277 | 1.0 | 2.0 | 0.00 | 0.00 | 0.00 | 79 | 1003.7 |
| 20260903155454 | 57 | 275 | 0.0 | 1.0 | 0.00 | 0.00 | 0.00 | 78 | 1003.7 |
| 20260903154752 | 58 | 275 | 0.0 | 0.0 | 0.00 | 0.00 | 0.00 | 76 | 1003.7 |
| 20260903154049 | 58 | 286 | 1.0 | 2.0 | 0.00 | 0.00 | 0.00 | 75 | 1003.7 |
| 20260903153347 | 59 | 315 | 1.0 | 3.0 | 0.00 | 0.00 | 0.00 | 74 | 1003.7 |
| 20260903152657 | 60 | 294 | 1.0 | 2.0 | 0.00 | 0.00 | 0.00 | 73 | 1003.7 |
| 20260903151955 | 60 | 300 | 1.0 | 2.0 | 0.00 | 0.00 | 0.00 | 72 | 1003.8 |
| 20260903151252 | 61 | 265 | 1.0 | 5.0 | 0.00 | 0.00 | 0.00 | 72 | 1003.9 |
| 20260903150549 | 61 | 282 | 2.0 | 2.0 | 0.00 | 0.00 | 0.00 | 72 | 1003.8 |
| 20260903145846 | 61 | 327 | 1.0 | 2.0 | 0.00 | 0.00 | 0.00 | 72 | 1003.9 |
| 20260903145155 | 62 | 313 | 0.0 | 1.0 | 0.00 | 0.00 | 0.00 | 72 | 1003.8 |
| 20260903144453 | 62 | 296 | 1.0 | 3.0 | 0.00 | 0.00 | 0.00 | 71 | 1003.8 |
| 20260903143751 | 62 | 302 | 1.0 | 2.0 | 0.00 | 0.00 | 0.00 | 70 | 1003.9 |
| 20260903143048 | 63 | 303 | 1.0 | 2.0 | 0.00 | 0.00 | 0.00 | 69 | 1003.9 |
| 20260903142358 | 63 | 313 | 1.0 | 6.0 | 0.00 | 0.00 | 0.00 | 69 | 1003.9 |
| 20260903141657 | 63 | 318 | 0.0 | 0.0 | 0.00 | 0.00 | 0.00 | 68 | 1003.9 |
| 20260903140955 | 64 | 329 | 0.0 | 0.0 | 0.00 | 0.00 | 0.00 | 66 | 1004.0 |
| 20260903140253 | 65 | 277 | 2.0 | 6.0 | 0.00 | 0.00 | 0.00 | 65 | 1003.8 |
| 20260903135549 | 66 | 308 | 1.0 | 1.0 | 0.00 | 0.00 | 0.00 | 64 | 1003.9 |
| 20260903134847 | 66 | 310 | 1.0 | 2.0 | 0.00 | 0.00 | 0.00 | 65 | 1004.0 |
| 20260903134156 | 66 | 315 | 0.0 | 0.0 | 0.00 | 0.00 | 0.00 | 64 | 1004.0 |
| 20260903133454 | 67 | 315 | 0.0 | 0.0 | 0.00 | 0.00 | 0.00 | 61 | 1003.9 |
| 20260903132752 | 69 | 301 | 0.0 | 2.0 | 0.00 | 0.00 | 0.00 | 59 | 1003.9 |
| 20260903132050 | 70 | 257 | 0.0 | 1.0 | 0.00 | 0.00 | 0.00 | 61 | 1003.9 |
| 20260903131347 | 65 | 276 | 1.0 | 1.0 | 0.00 | 0.00 | 0.00 | 64 | 1004.0 |
| 20260903130646 | 66 | 337 | 1.0 | 2.0 | 0.00 | 0.00 | 0.00 | 62 | 1004.1 |
| 20260903125956 | 67 | 319 | 0.0 | 1.0 | 0.00 | 0.00 | 0.00 | 61 | 1004.1 |
| 20260903125254 | 69 | 357 | 0.0 | 0.0 | 0.00 | 0.00 | 0.00 | 59 | 1004.2 |
| 20260903124550 | 71 | 86 | 1.0 | 0.0 | 0.00 | 0.00 | 0.00 | 55 | 1004.2 |
| 20260903123849 | 73 | 147 | 1.0 | 1.0 | 0.00 | 0.00 | 0.00 | 52 | 1004.2 |
| 20260903123147 | 76 | 316 | 5.0 | 7.0 | 0.00 | 0.00 | 0.00 | 48 | 1004.2 |
| 20260903122457 | 82 | 356 | 1.0 | 3.0 | 0.00 | 0.00 | 0.00 | 45 | 1004.3 |